Home   Weather   Böblingen   Past weeks

Flag for Germany Past Weather in Böblingen, Baden-Württemberg, Germany — Yesterday and Last 2 Weeks

Now
57 °F

Sprinkles. Broken clouds.


Feels Like: 54 °F
Forecast: 56 / 69 °F
Wind: 16 mph from West

Location: Stuttgart-Echterdingen

Current Time: Jul 26, 2017 at 12:44:54 pm

Latest Report: Jul 26, 2017 at 11:50 am


Visibility: N/A

Pressure: 29.83 "Hg

Humidity: 94%

Dew Point: 55 °F

Location of BöblingenLocation

Past Weather in Böblingen — Graph

°F

Böblingen Temperature Yesterday

Maximum temperature yesterday: 59 °F (at 10:20 am)
Minimum temperature yesterday: 54 °F (at 4:20 am)
Average temperature yesterday: 57 °F

High & Low Weather Summary for the Past Weeks

 TemperatureHumidityPressure
High91 °F (Jul 19, 3:20 pm)100% (Jul 15, 2:50 am)30.30 "Hg (Jul 15, 2:50 am)
Low50 °F (Jul 16, 3:50 am)29% (Jul 19, 4:20 pm)29.74 "Hg (Jul 26, 12:50 am)
Average66 °F71%30.01 "Hg
* Reported Jul 11 11:20 am — Jul 26 11:20 am, Böblingen. Weather by CustomWeather, © 2017

Note: Actual official high and low records may vary slightly from our data, if they occured in-between our weather recording intervals... More about our weather records

Advertising

Böblingen Weather History for the Previous 24 Hours

Scroll right to see more
 ConditionsComfort  
Time TempWeatherWind HumidityBarometerVisibility
11:20 am
Wed, Jul 26
57 °FSprinkles. Broken clouds.15 mph94%29.83 "HgN/A
11:03 am57 °FSprinkles. Broken clouds.16 mph94%29.83 "HgN/A
10:30 am57 °FRain showers. Broken clouds.15 mph94%29.83 "HgN/A
10:20 am57 °FBroken clouds.15 mph94%29.83 "HgN/A
9:50 am57 °FSprinkles. Broken clouds.16 mph94%29.83 "HgN/A
9:25 am57 °FSprinkles. Broken clouds.13 mph94%29.80 "HgN/A
9:00 am57 °FRain showers. Broken clouds.10 mph94%29.80 "HgN/A
8:20 am57 °FLight rain. Broken clouds.13 mph94%29.80 "HgN/A
7:50 am57 °FLight rain. Broken clouds.16 mph94%29.80 "HgN/A
7:20 am57 °FBroken clouds.15 mph94%29.80 "HgN/A
6:50 am57 °FLight rain. Broken clouds.13 mph94%29.77 "HgN/A
6:20 am57 °FLight rain. Broken clouds.14 mph94%29.77 "Hg5 mi
5:50 am55 °FRain. More clouds than sun.14 mph100%29.77 "Hg4 mi
5:20 am57 °FRain. Mostly cloudy.16 mph94%29.77 "Hg6 mi
4:50 am57 °FRain. Mostly cloudy.17 mph94%29.74 "Hg5 mi
4:20 am55 °FRain. Mostly cloudy.13 mph100%29.74 "Hg5 mi
3:50 am55 °FRain. Mostly cloudy.13 mph94%29.74 "Hg4 mi
3:20 am55 °FRain. Passing clouds.12 mph94%29.74 "Hg5 mi
2:50 am55 °FRain. Passing clouds.12 mph94%29.74 "Hg5 mi
2:20 am55 °FRain. Overcast.14 mph94%29.74 "HgN/A
1:50 am55 °FRain. Overcast.10 mph94%29.74 "HgN/A
1:20 am55 °FRain. Partly cloudy.9 mph94%29.74 "HgN/A
12:50 am55 °FRain. Mostly cloudy.8 mph94%29.74 "HgN/A
12:20 am55 °FRain. Partly cloudy.6 mph94%29.77 "HgN/A
11:53 pm
Tue, Jul 25
55 °FRain. Passing clouds.9 mph94%29.77 "HgN/A
11:50 pm55 °FLight rain. Partly cloudy.8 mph94%29.77 "HgN/A
11:20 pm55 °FLight rain. Partly cloudy.8 mph94%29.77 "HgN/A
10:50 pm55 °FLight rain. Partly cloudy.6 mph94%29.80 "HgN/A
10:20 pm55 °FLight rain. Partly cloudy.5 mph94%29.80 "HgN/A
9:50 pm57 °FPartly cloudy.6 mph88%29.80 "HgN/A
9:20 pm57 °FLight rain. Partly cloudy.6 mph94%29.80 "HgN/A
8:50 pm57 °FLight rain. Broken clouds.6 mph94%29.80 "HgN/A
8:20 pm57 °FLight rain. Broken clouds.8 mph94%29.83 "HgN/A
7:57 pm57 °FRain. Broken clouds.8 mph94%29.83 "HgN/A
7:20 pm57 °FLight rain. Broken clouds.9 mph94%29.83 "HgN/A
6:50 pm57 °FLight rain. Broken clouds.12 mph94%29.83 "HgN/A
6:34 pm57 °FLight rain. Broken clouds.10 mph94%29.83 "HgN/A
6:20 pm59 °FLight rain. Broken clouds.8 mph88%29.83 "HgN/A
5:50 pm57 °FLight rain. Broken clouds.8 mph88%29.83 "HgN/A
5:20 pm59 °FLight rain. Partly sunny.8 mph88%29.83 "HgN/A
4:50 pm59 °FRain. Partly sunny.12 mph88%29.83 "HgN/A
4:20 pm59 °FLight rain. Broken clouds.10 mph88%29.83 "HgN/A
3:50 pm59 °FLight rain. Broken clouds.10 mph88%29.83 "HgN/A
3:20 pm59 °FLight rain. Broken clouds.8 mph88%29.83 "HgN/A
2:50 pm57 °FLight rain. Broken clouds.12 mph94%29.83 "HgN/A
2:20 pm57 °FLight rain. Broken clouds.14 mph88%29.83 "HgN/A
1:50 pm57 °FLight rain. Broken clouds.17 mph88%29.83 "HgN/A
1:30 pm57 °FRain. Broken clouds.12 mph94%29.83 "HgN/A
1:20 pm57 °FLight rain. Broken clouds.13 mph94%29.83 "HgN/A
12:50 pm59 °FBroken clouds.12 mph82%29.83 "HgN/A
12:20 pm59 °FScattered showers. Broken clouds.14 mph88%29.83 "HgN/A
Weather by CustomWeather, © 2017

See weather overviewHow to use our weather pages